Regional Weather Roundup
Issued by NWS

Home | Current Version | Previous Version | Graphics & Text | Print | Product List | Glossary On
Versions: 1 2 3 4 5 6 7 8 9 10 11 12 13 14 15 16 17 18 19 20 21 22 23 24 25 26 27 28 29 30 31 32 33 34 35 36 37 38 39 40 41 42 43 44 45 46 47 48 49 50
000
ASUS43 KLOT 291912
RWRIL

ILLINOIS REGIONAL WEATHER ROUNDUP
NATIONAL WEATHER SERVICE CHICAGO/ROMEOVILLE IL
200 PM CDT SAT AUG 29 2015

NOTE: "FAIR" INDICATES FEW OR NO CLOUDS BELOW 12,000 FEET WITH NO
SIGNIFICANT WEATHER AND/OR OBSTRUCTIONS TO VISIBILITY.

* THESE STATIONS ARE NOT UNDER NWS QUALITY CONTROL. THEY ALSO MAY NOT
  REPORT WEATHER SUCH AS PRECIPITATION OR FOG.

ILZ001-002-007-009-015-016-024-292000-
NORTHWEST ILLINOIS

CITY           SKY/WX    TMP DP  RH WIND       PRES   REMARKS
MOLINE         CLOUDY    74  67  78 CALM      29.99F
STERLING*      CLOUDY    72  66  83 CALM      29.99R
SAVANNA*       CLOUDY    72  65  79 NE3       30.01S
$$

ILZ003-004-008-010-011-017-018-292000-
NORTH CENTRAL ILLINOIS

CITY           SKY/WX    TMP DP  RH WIND       PRES   REMARKS
ROCKFORD       CLOUDY    70  64  81 NW3       30.03R
FREEPORT*      CLOUDY    68  64  86 CALM      30.04S
ROCHELLE*      CLOUDY    71  66  83 SW5       30.02R
DE KALB*       CLOUDY    70  66  87 S8        30.03R
PERU*          PTSUNNY   75  65  70 SW6       30.01S
$$

ILZ005-006-012>014-019>023-292000-
NORTHEAST ILLINOIS

CITY           SKY/WX    TMP DP  RH WIND       PRES   REMARKS
CHICAGO-OHARE  CLOUDY    69  66  90 SW6       30.01F FOG
CHICAGO-MIDWAY CLOUDY    75  64  68 VRB6      30.00F
AURORA         CLOUDY    70  67  90 S6        30.02S FOG
LANSING*       CLOUDY    73  65  74 S14       30.01F
JOLIET*        CLOUDY    73  67  81 S7        30.01F
WAUKEGAN       CLOUDY    66  64  93 E3        30.02S
DUPAGE AIRPORT CLOUDY    69  65  86 S8        30.01F
KANKAKEE*      CLOUDY    75  68  79 S5        30.03S
WHEELING       CLOUDY    69  65  86 S9        30.02F
MORRIS*        CLOUDY    73  67  83 S5        30.00F
ROMEOVILLE*    CLOUDY    73  64  73 SW13      30.01F
NORTHERLY ISL    N/A     72  63  73 S8          N/A
$$

LMZ740>746-292000-
SOUTHERN LAKE MICHIGAN

STATION/POSITION SKY/WX   TEMP    WIND        PRES    VSBY  WAVE
                          AIR SEA DIR/SP/G                  HT/PER
                          (F)     (DEG/KT/KT) (MB)    (MI)  (FT/S)
SOUTHERN BUOY              67 68  120/ 14/ 14 1016.6F
WILMETTE HARBOR            60 56  270/  4/  6   N/A           2/ 4
HARRISON CRIB              67     160/ 10/ 11   N/A
BURNHAM HARBOR             72     210/  3/ 11   N/A
BURNS HARBOR               72     180/  7/ 14 1017.6F
MICHIGAN CITY              69     130/ 10/ 11   N/A
MICHIGAN CITY 6N           71 71  190/ 10/ 14   N/A           1
ST. JOSEPH                 69 70  190/  4/  8   N/A           1/ 3
$$

ILZ025>027-034>036-040-047-049-050-058-095>099-292000-
WEST-CENTRAL ILLINOIS

CITY           SKY/WX    TMP DP  RH WIND       PRES   REMARKS
QUINCY         CLOUDY    80  67  64 W6        29.99F HX  82
GALESBURG*     CLOUDY    76  66  71 SE5       30.00F
MACOMB*        PTSUNNY   78  67  70 NW3       30.02S
JACKSONVILLE*  PTSUNNY   82  69  65 S8        30.00F HX  85
PITTSFIELD*    PTSUNNY   82  67  60 W3        30.01S HX  85
$$

ILZ028>032-037-038-041>044-048-051>054-059>061-292000-
CENTRAL ILLINOIS

CITY           SKY/WX    TMP DP  RH WIND       PRES   REMARKS
PONTIAC        CLOUDY    78  68  72 SW9       30.02F
BLOOMINGTON    PTSUNNY   79  68  69 S8        30.03F HX  81
DECATUR        CLOUDY    82  66  58 SW13      30.03F HX  84
PEORIA         PTSUNNY   82  65  56 S3        30.00F HX  84
LACON*         SUNNY     76  65  68 CALM      29.99F
LINCOLN*       CLOUDY    80  66  61 S8        30.00F HX  82
SPRINGFIELD    CLOUDY    77  67  71 S7        30.02S
TAYLORVILLE    CLOUDY    79  66  65 S6        30.02F HX  81
$$

ILZ033-039-045-046-055>057-062-063-292000-
EAST-CENTRAL ILLINOIS

CITY           SKY/WX    TMP DP  RH WIND       PRES   REMARKS
CHAMPAIGN      CLOUDY    79  68  69 SW5       30.04F HX  81
RANTOUL*       CLOUDY    80  70  73 SW5       30.04S HX  83
MATTOON        CLOUDY    82  67  60 S7        30.03F HX  84
PARIS*         CLOUDY    81  68  65 S8        30.06S HX  84
$$

ILZ079-100>102-292000-
SOUTHWEST ILLINOIS

CITY           SKY/WX    TMP DP  RH WIND       PRES   REMARKS
BELLEVILLE     CLOUDY    79  69  73 SE3       30.02F HX  81
CAHOKIA*       CLOUDY    80  66  62 S7        30.03S HX  82
SPARTA*        CLOUDY    76  64  66 S10       30.06S
$$

ILZ064>066-069>071-074>076-080>082-084>086-088>090-092>094-292000-
SOUTH-CENTRAL ILLINOIS

CITY           SKY/WX    TMP DP  RH WIND       PRES   REMARKS
CARBONDALE     LGT RAIN  77  68  73 SW6       30.05F
CAIRO*         PTSUNNY   84  73  69 S7        30.04F HX  89
EFFINGHAM*     CLOUDY    79  64  60 SE5       30.06F HX  81
MARION         CLOUDY    81  70  69 SW9       30.07S HX  84
MT. VERNON     CLOUDY    79  66  65 S8        30.06F HX  81
SALEM*         CLOUDY    81  68  64 S8        30.05S HX  84
METROPOLIS*    PTSUNNY   86  75  68 S9        30.05F HX  95
$$

ILZ067-068-072-073-078-083-087-091-292000-
SOUTHEAST ILLINOIS

CITY           SKY/WX    TMP DP  RH WIND       PRES   REMARKS
LAWRENCEVILLE  CLOUDY    81  68  64 S10       30.07S HX  84
FLORA*         CLOUDY    80  67  65 S7        30.06S HX  82
FAIRFIELD*     CLOUDY    76  71  85 S6        30.05F
HARRISBURG*    PTSUNNY   87  69  55 SW9G18    30.05F HX  91
ROBINSON*      CLOUDY    79  68  69 SW5       30.07F HX  81
CARMI*         CLOUDY    83  70  63 SW12      30.05F HX  88
$$

ABBREVIATIONS USED IN REMARKS
   TC - TEMPERATURE IN CELSIUS
  WCI - WIND CHILL INDEX
   HX - HEAT INDEX
  VSB - VISIBILITY
$$




USA.gov is the U.S. government's official web portal to all federal, state and local government web resources and services.